Flag for France Weather past 2 weeks in Paris, France

54 °F


Feels Like: 52 °F
Forecast: 56 / 64 °F
Wind: 7 mph from Southeast

Location: Villacoublay

Current Time: Oct 4, 2015 at 10:18:29 PM

Latest Report: Oct 4, 2015 at 10:00 PM

Visibility: 10 mi

Pressure: 29.92 "Hg

Humidity: 94%

Dew point: 52 °F

Location of ParisLocation

Historic Weather in Paris — Graph


Paris temperature yesterday

Maximum temperature yesterday: 70 °F (at 4:30 PM)
Minimum temperature yesterday: 48 °F (at 7:30 AM)
Average temperature yesterday: 58 °F

Past Weeks' High & Low Weather Summary

High70 °F (Oct 3, 4:30 PM)100% (Sep 20, 4:30 AM)30.51 "Hg (Sep 20, 4:30 AM)
Low46 °F (Sep 20, 7:00 AM)39% (Oct 1, 5:30 PM)29.59 "Hg (Sep 22, 2:30 PM)
Average56 °F72%30.16 "Hg
* Reported Sep 19 9:00 PM — Oct 4 9:00 PM, Paris, Weather by CustomWeather, © 2015

Note: Actual official high and low records may vary slightly from our data, if they occured in-between our weather recording intervals... More about our weather records


Paris weather history for previous 24 hours

Time TempWeatherWind HumidityBarometerVisibility
9:00 PM
Sun, Oct 4
55 °FPassing clouds.6 mph88%29.95 "HgN/A
8:30 PM55 °FPassing clouds.7 mph88%29.92 "HgN/A
8:00 PM55 °FMore clouds than sun.7 mph88%29.92 "HgN/A
7:30 PM55 °FPartly sunny.7 mph88%29.92 "HgN/A
7:00 PM55 °FPartly sunny.6 mph88%29.95 "HgN/A
6:30 PM55 °FOvercast.8 mph88%29.95 "HgN/A
6:00 PM55 °FPartly sunny.8 mph88%29.95 "HgN/A
5:30 PM55 °FOvercast.8 mph88%29.95 "HgN/A
5:00 PM55 °FLow clouds.9 mph88%29.95 "HgN/A
4:30 PM55 °FLow clouds.9 mph88%29.98 "Hg6 mi
4:00 PM55 °FLow clouds.8 mph88%29.98 "Hg4 mi
3:30 PM54 °FLow clouds.9 mph94%29.98 "Hg4 mi
3:00 PM54 °FLow clouds.8 mph94%30.01 "Hg4 mi
2:30 PM54 °FLow clouds.9 mph94%30.01 "Hg4 mi
2:00 PM54 °FLow clouds.8 mph88%30.01 "Hg4 mi
1:30 PM54 °FPartly sunny.9 mph88%30.04 "Hg6 mi
1:00 PM57 °FSunny.N/A77%30.01 "Hg10 mi
12:30 PM57 °FSunny.8 mph77%30.04 "Hg10 mi
12:00 PM57 °FPassing clouds.5 mph77%30.04 "HgN/A
11:30 AM57 °FSunny.N/A72%30.04 "Hg10 mi
11:00 AM55 °FClear.3 mph77%30.04 "Hg6 mi
10:30 AM54 °FClear.3 mph82%30.04 "Hg4 mi
10:00 AM52 °FClear.7 mph82%30.04 "Hg4 mi
9:30 AM54 °FFog.2 mph88%30.04 "Hg3 mi
9:00 AM50 °FFog.2 mph94%30.04 "Hg3 mi
8:30 AM46 °FFog.No wind93%30.04 "Hg2 mi
8:00 AM46 °FFog.2 mph93%30.04 "Hg2 mi
7:30 AM46 °FClear.No wind93%30.01 "Hg4 mi
7:00 AM46 °FClear.No wind93%30.01 "Hg4 mi
6:30 AM46 °FClear.No wind93%30.01 "Hg4 mi
6:00 AM48 °FClear.N/A87%30.01 "Hg5 mi
5:30 AM48 °FClear.5 mph87%30.01 "Hg10 mi
5:00 AM48 °FClear.No wind87%30.01 "Hg10 mi
4:30 AM50 °FClear.6 mph82%30.01 "Hg10 mi
4:00 AM50 °FClear.5 mph82%29.98 "Hg10 mi
3:30 AM50 °FClear.2 mph88%30.01 "Hg10 mi
3:00 AM50 °FClear.5 mph88%30.01 "Hg10 mi
2:30 AM50 °FClear.5 mph82%29.98 "Hg10 mi
2:00 AM50 °FClear.2 mph82%29.98 "Hg10 mi
1:30 AM52 °FClear.No wind77%29.98 "Hg10 mi
1:00 AM54 °FClear.2 mph72%29.98 "Hg10 mi
12:30 AM54 °FClear.3 mph72%29.98 "Hg10 mi
11:30 PM
Sat, Oct 3
57 °FClear.5 mph63%29.95 "Hg10 mi
11:00 PM57 °FClear.5 mph67%29.95 "Hg10 mi
10:30 PM57 °FPassing clouds.7 mph67%29.95 "HgN/A
10:00 PM59 °FPassing clouds.6 mph63%29.95 "HgN/A
Weather by CustomWeather, © 2015

See weather overviewHow to use our weather pages